CZ-2D DEB, 44610

Orbit data source: Space-Track

CZ-2D DEB, 44610 is space debris in SSO originally from a launch on Mon, 09 Oct 2017 UTC launched from the Jiuquan Satellite Launch Center, China (JSC). Debris objects in space refer to the collection of defunct objects orbiting the Earth. Examples of debris include non-operational satellites, rocket bodies, and fragments generated from explosions, collisions, or faulty payload assembly.

Loading next visibility...
CZ-2D DEB details
Identifier
44610, 2017-060C
Orbit
SSO
Last TLE update7 hours ago
Origin
Flag of CNCASC (CN / PRC)
ManufacturerUnknown
MissionSpacecraft
Bus & MotorUnknown
MassUnknown
Launch date (UTC)
2017-10-09 (7 years ago)
Launch vehicleUnknown
Launch site
Jiuquan Satellite Launch Center, China (JSC)
Object type
Payload
Rocket body
Debris
Shape & HBRUnknown
Radar Cross SectionSmall (<0.1 m²)

Expand to show TLE details & history

TLE from 7 hours ago
0 CZ-2D DEB
1 44610U 17060C   24339.90839493  .00017003  00000-0  14648-2 0  9991
2 44610  98.2410 138.9295 0021121 160.3712 199.8326 14.97238274385196
Epoch: 2024-12-04T21:48Z
Definitive object data (Epoch: 2024-12-04T21:48:05.321Z)
Latitude-0.00005°
Longitude97.71054°
Altitude592.291 km
Speed7.556 km/s
True Right ascension09h 15m 43s
True Declination0° 00' 00"
Sunlit
Object was in daylight at TLE epoch
Visualization TLE readout
Latitude70.4795°
Longitude-58.01404°
Altitude578.421 km
Speed7.583 km/s
Apparent Right ascension16h 32m 27s
Apparent Declination30° 57' 25"
Sunlit
Object is in daylight
Visualization observer readout
Local Sidereal Time02:39:18
Azimuth335.187° NNW
Elevation-14.424°
Doppler factor1
Orbital elements
Apogee altitude587.148 km
Perigee altitude557.787 km
Semi-major axis6,950.605 km
Eccentricity0.0021121
Inclination98.241°
RAAN138.9295°
Arg. of periapsis160.3712°
True anomaly199.75069°
Mean anomaly199.8326°
Eccentric anomaly199.79162°
Mean motion3.7455 °/min
BSTAR0.0014648
Orbital period96.12 mins
Loading maneuver chart data...
Loading historical data...
Loading historical data...
Loading historical data...
Loading historical data...
Loading historical data...
Loading historical data...
Loading historical data...
Other satellites on launch #60 in the year 2017 (2017-10-09 UTC)

CZ-2D DEB Visibility forecast

Observer location: undefined°, undefined

Span
Click to sort rows by Start time (UTC) header in descending order
Start Az.
Max El. time (UTC)
Max El. Az.
Max El.
End time (UTC)
End Az.
8 mins2024-12-05 10:44:51.417Z163.241° S2024-12-05 10:48:51.417Z60.361° ENE44.792°2024-12-05 10:52:51.417Z348.668° N
5 mins2024-12-06 00:02:51.417Z353.315° N2024-12-06 00:04:51.417Z288.854° WNW39.075°2024-12-06 00:07:51.417Z212.793° SW
|